Weather in Nizhnyaya Teberda

Russia / Karachay-Cherkess Republic     43°38′16″N   41°52′38″E
temp.,
°C
wind,
m/s
gust,
m/s
humid.,
%
clouds,
%
prec.,
mm/h
press.,
hPa
HPBL,
m
19 april, mon
mon1900:00+8sse2280100 0.1 101735
03:00+8sse3486100 0.3 1016106
06:00+8se3484100 0.1 101686
09:00+13nw236599 0.3 1016997
12:00+14wnw236473 0.1 1015925
15:00+17wsw3546100 0.2 10121932
18:00+13n0172100 0.8 101352
21:00+10sse2279100 0.8 101428
20 april, tue
tue2000:00+9se3480100 0.0 101384
03:00+8se3480100 0.0 101269
06:00+9se3576100 0.1 100979
09:00+17sse3650100 0.1 1006428
12:00+20sse61340100 0.1 10061819
15:00+16sse3654100 0.5 10061228
18:00+12se2377100 0.6 1008104
21:00+10wnw1290100 0.8 101245
21 april, wed
wed2100:00+7nw2395100 0.0 1013171
03:00+6nnw229654 1.1 101366
06:00+5nw2393100 0.0 1016323
09:00+6nnw1287100 0.3 1016296
12:00+6nnw2391100 0.6 1017401
15:00+6n2292100 1.9 1018346
18:00+5nw2298100 0.1 1019252
21:00+4wnw1299100 0.6 1021186
22 april, thu
thu2200:00+4nw0097100 0.3 1021176
03:00+5wnw1197100 1.3 1021160
06:00+5nnw1197100 1.4 1021184
09:00+5nnw1294100 3.3 1022447
12:00+5nw1294100 1.9 1023779
15:00+5nnw1194100 2.8 1023461
18:00+5wnw0191100 0.3 1023299
21:00+4se0196100 0.3 102318
23 april, fri
fri2300:00+4sse119480 0.0 102313
03:00+3se119138 0.0 102315
06:00+2se22884 0.0 102334
09:00+9nw11602 0.0 1020793
12:00+12nnw434760 0.2 10191875
15:00+11nnw336030 1.7 10191170
18:00+8nnw237425 1.5 1020603
21:00+4sse11918 1.7 102317